Regional Weather Roundup
Issued by NWS

Home | Current Version | Previous Version | Graphics & Text | Print | Product List | Glossary On
Versions: 1 2 3 4 5 6 7 8 9 10 11 12 13 14 15 16 17 18 19 20 21 22 23 24 25 26 27 28 29 30 31 32 33 34 35 36 37 38 39 40 41 42 43 44 45 46 47 48 49 50
000
ASUS43 KLOT 200600
RWRIL

ILLINOIS REGIONAL WEATHER ROUNDUP
NATIONAL WEATHER SERVICE CHICAGO/ROMEOVILLE IL
100 AM CDT MON OCT 20 2014

NOTE: "FAIR" INDICATES FEW OR NO CLOUDS BELOW 12,000 FEET WITH NO
SIGNIFICANT WEATHER AND/OR OBSTRUCTIONS TO VISIBILITY.

* THESE STATIONS ARE NOT UNDER NWS QUALITY CONTROL. THEY ALSO MAY NOT
  REPORT WEATHER SUCH AS PRECIPITATION OR FOG.

ILZ001-002-007-009-015-016-024-200700-
NORTHWEST ILLINOIS

CITY           SKY/WX    TMP DP  RH WIND       PRES   REMARKS
MOLINE         CLEAR     52  43  71 W9        29.88F
6HR MIN TEMP:  52; 6HR MAX TEMP:  58;

$$

ILZ003-004-008-010-011-017-018-200700-
NORTH CENTRAL ILLINOIS

CITY           SKY/WX    TMP DP  RH WIND       PRES   REMARKS
ROCKFORD       NOT AVBL
$$

ILZ005-006-012>014-019>023-200700-
NORTHEAST ILLINOIS

CITY           SKY/WX    TMP DP  RH WIND       PRES   REMARKS
CHICAGO-OHARE  MOCLDY    52  43  71 SW9       29.88F
6HR MIN TEMP:  51; 6HR MAX TEMP:  54;

CHICAGO-MIDWAY MOCLDY    52  45  77 SW10      29.90F
6HR MIN TEMP:  52; 6HR MAX TEMP:  55;

AURORA         MOCLDY    50  43  77 S10       29.89F
6HR MIN TEMP:  50; 6HR MAX TEMP:  54;

WAUKEGAN       NOT AVBL
DUPAGE AIRPORT MOCLDY    50  43  77 S10       29.88F
6HR MIN TEMP:  50; 6HR MAX TEMP:  54;

WHEELING       MOCLDY    54  43  66 SW10      29.89F
6HR MIN TEMP:  53; 6HR MAX TEMP:  55;

NORTHERLY ISL    N/A     53  43  68 S8          N/A
$$

LMZ740>746-200700-
SOUTHERN LAKE MICHIGAN

STATION/POSITION SKY/WX   TEMP    WIND        PRES    VSBY  WAVE
                          AIR SEA DIR/SP/G                  HT/PER
                          (F)     (DEG/KT/KT) (MB)    (MI)  (FT/S)
SOUTHERN BUOY              55 55  210/ 19/ 23 1011.4          5/ 6
WAUKEGAN HARBOR            54     230/ 16/ 19   N/A
HARRISON CRIB              54     210/ 22/ 25   N/A
BURNHAM HARBOR             53     200/  6/ 11   N/A
CALUMET HARBOR             53     200/  9/ 12 1011.8F
MICHIGAN CITY              51     180/ 14/ 17   N/A
$$

ILZ025>027-034>036-040-047-049-050-058-095>099-200700-
WEST-CENTRAL ILLINOIS

CITY           SKY/WX    TMP DP  RH WIND       PRES   REMARKS
$$

ILZ028>032-037-038-041>044-048-051>054-059>061-200700-
CENTRAL ILLINOIS

CITY           SKY/WX    TMP DP  RH WIND       PRES   REMARKS
PEORIA         NOT AVBL
SPRINGFIELD    CLOUDY    54  46  74 SW6       29.98F
6HR MIN TEMP:  51; 6HR MAX TEMP:  56;

TAYLORVILLE    NOT AVBL
$$

ILZ033-039-045-046-055>057-062-063-200700-
EAST-CENTRAL ILLINOIS

CITY           SKY/WX    TMP DP  RH WIND       PRES   REMARKS
CHAMPAIGN      CLOUDY    50  45  83 MISG      29.99F
$$

ILZ079-100>102-200700-
SOUTHWEST ILLINOIS

CITY           SKY/WX    TMP DP  RH WIND       PRES   REMARKS
BELLEVILLE     MOCLDY    53  48  83 SW6       30.02S
CAHOKIA*       MOCLDY    57  47  69 SW5       30.02S
$$

ILZ064>066-069>071-074>076-080>082-084>086-088>090-092>094-200700-
SOUTH-CENTRAL ILLINOIS

CITY           SKY/WX    TMP DP  RH WIND       PRES   REMARKS
CARBONDALE     PTCLDY    43  40  89 CALM      30.05F
6HR MIN TEMP:  42; 6HR MAX TEMP:  51;

$$

ILZ067-068-072-073-078-083-087-091-200700-
SOUTHEAST ILLINOIS

CITY           SKY/WX    TMP DP  RH WIND       PRES   REMARKS
LAWRENCEVILLE  PTCLDY    46  44  93 S5        30.05F FOG
$$

ABBREVIATIONS USED IN REMARKS
   TC - TEMPERATURE IN CELSIUS
  WCI - WIND CHILL INDEX
   HX - HEAT INDEX
  VSB - VISIBILITY
$$




USA.gov is the U.S. government's official web portal to all federal, state and local government web resources and services.